Location: Dodgeville, WI 53533, USA
(43.0344°N, 90.0900°W)
Time: 00:08:26
(UTC-05:00)

Envisat - Visible Passes

Search period start: 19 June 2018 00:00
Search period end: 29 June 2018 00:00
Orbit: 764 x 766 km, 98.2° (Epoch: 18 June)

Date Brightness Start Highest point End Pass type
(mag) Time Alt. Az. Time Alt. Az. Time Alt. Az.
21 Jun 5.5 21:25:33 10° SW 21:29:11 20° W 21:32:49 10° NW visible
23 Jun 5.9 21:53:52 10° W 21:55:04 11° W 21:56:16 10° WNW visible
24 Jun 5.2 21:13:50 10° SSW 21:17:55 24° W 21:22:03 10° NW visible
26 Jun 5.7 21:41:09 10° WSW 21:43:45 14° W 21:46:23 10° WNW visible
